Memphis, TN

11:06 PM CDT on July 24, 2017 (GMT -0500)
Memphis International

Weather History for KMEM - June, 2014

Change the Weather History Date:

Wednesday, June 11, 2014

  Actual Average Record
Temperature  
Mean Temperature 74 °F 79 °F  
Max Temperature 81 °F 88 °F 103 °F (1953)
Min Temperature 66 °F 69 °F 53 °F (1966)
Degree Days  
Heating Degree Days 0 0  
Month to date heating degree days 0 0  
Since 1 June heating degree days 0 0  
Since 1 July heating degree days 3484 2964  
Cooling Degree Days 9 14  
Month to date cooling degree days 146 139  
Year to date cooling degree days 457 460  
Since 1 June cooling degree days 146 139  
Growing Degree Days 24 (Base 50)    
Moisture  
Dew Point 65 °F    
Average Humidity 74    
Maximum Humidity 93    
Minimum Humidity 54    
Precipitation  
Precipitation T in 0.12 in 1.76 in (1959)
Month to date precipitation 3.74 1.45  
Year to date precipitation 29.70 25.73  
Snow  
Snow 0.00 in 0.00 in - ()
Month to date snowfall 0.0 0.0  
Since 1 June snowfall 0.0 0.0  
Since 1 July snowfall 0.8 3.8  
Snow Depth 0.00 in    
Sea Level Pressure  
Sea Level Pressure 29.79 in    
Wind  
Wind Speed 6 mph (WSW)    
Max Wind Speed 14 mph    
Max Gust Speed 18 mph    
Visibility 9 miles    
Events Rain    
T = Trace of Precipitation, MM = Missing Value Source: NWS Daily Summary

Daily Weather History Graph

Daily Weather History Graph

Search for Another Location

Airport or City:

Trip Planner

Search our weather history database for the weather conditions in past years. The results will help you decide how hot, cold, wet, or windy it might be!

Date:

Astronomy

Jun. 11, 2014 Rise Set
Actual Time 5:45 AM CDT 8:14 PM CDT
Civil Twilight 5:15 AM CDT 8:43 PM CDT
Nautical Twilight 4:39 AM CDT 9:20 PM CDT
Astronomical Twilight 3:58 AM CDT 10:00 PM CDT
Moon 6:47 PM CDT (6/11) 4:30 AM CDT (6/11)
Length of Visible Light 15h 27m
Length of Day
14h 28m
Waxing Gibbous, 97% of the Moon is Illuminated
Jun 11
Waxing Gibbous
Jun 12
Full
Jun 19
Last Quarter
Jun 27
New
Jul 5
First Quarter

Hourly Weather History & Observations

Time (CDT) Temp. Heat Index Dew Point Humidity Pressure Visibility Wind Dir Wind Speed Gust Speed Precip Events Conditions
12:54 AM 69.1 °F - 66.0 °F 90% 29.73 in 10.0 mi SSW 8.1 mph - N/A   Scattered Clouds
1:54 AM 68.0 °F - 64.9 °F 90% 29.72 in 10.0 mi SSW 8.1 mph - N/A   Scattered Clouds
2:54 AM 68.0 °F - 64.9 °F 90% 29.71 in 10.0 mi SW 6.9 mph - N/A   Scattered Clouds
3:54 AM 66.9 °F - 64.0 °F 90% 29.72 in 10.0 mi SSW 8.1 mph - N/A   Mostly Cloudy
4:54 AM 66.9 °F - 64.0 °F 90% 29.73 in 10.0 mi SW 4.6 mph - N/A   Mostly Cloudy
5:52 AM 66.2 °F - 64.4 °F 94% 29.75 in 8.0 mi SW 4.6 mph - N/A   Scattered Clouds
5:54 AM 66.0 °F - 64.0 °F 93% 29.74 in 8.0 mi SSW 4.6 mph - N/A   Scattered Clouds
6:41 AM 66.2 °F - 64.4 °F 94% 29.77 in 7.0 mi SSW 5.8 mph - N/A   Overcast
6:54 AM 66.9 °F - 64.9 °F 93% 29.77 in 7.0 mi SSW 5.8 mph - N/A   Overcast
7:33 AM 69.8 °F - 66.2 °F 88% 29.79 in 8.0 mi SW 6.9 mph - N/A   Overcast
7:54 AM 69.1 °F - 66.0 °F 90% 29.79 in 8.0 mi WSW 5.8 mph - N/A   Overcast
8:27 AM 68.0 °F - 64.4 °F 88% 29.80 in 10.0 mi West 4.6 mph - N/A   Overcast
8:54 AM 70.0 °F - 66.0 °F 87% 29.80 in 10.0 mi West 5.8 mph - N/A   Overcast
9:01 AM 69.8 °F - 64.4 °F 83% 29.81 in 10.0 mi West 6.9 mph - N/A   Overcast
9:32 AM 71.6 °F - 66.2 °F 83% 29.80 in 10.0 mi SW 5.8 mph - N/A   Overcast
9:54 AM 72.0 °F - 66.0 °F 81% 29.79 in 10.0 mi Variable 5.8 mph - N/A   Mostly Cloudy
10:54 AM 73.0 °F - 66.0 °F 79% 29.80 in 10.0 mi WSW 5.8 mph - N/A   Overcast
11:11 AM 73.4 °F - 64.4 °F 73% 29.81 in 10.0 mi SW 5.8 mph - N/A   Overcast
11:54 AM 73.9 °F - 66.0 °F 76% 29.81 in 7.0 mi WSW 6.9 mph - N/A   Overcast
12:21 PM 75.2 °F - 66.2 °F 73% 29.82 in 8.0 mi West 8.1 mph - N/A   Overcast
12:54 PM 73.9 °F - 66.9 °F 79% 29.82 in 8.0 mi West 9.2 mph - 0.00 in Rain Light Rain
1:54 PM 79.0 °F - 66.9 °F 66% 29.81 in 10.0 mi Variable 6.9 mph - N/A   Mostly Cloudy
2:54 PM 78.1 °F - 64.9 °F 64% 29.81 in 10.0 mi WNW 10.4 mph - N/A   Mostly Cloudy
3:54 PM 80.1 °F 81.7 °F 64.0 °F 58% 29.80 in 10.0 mi NW 10.4 mph - N/A   Mostly Cloudy
4:54 PM 80.1 °F 81.7 °F 64.0 °F 58% 29.79 in 10.0 mi NW 11.5 mph - N/A   Scattered Clouds
5:54 PM 80.1 °F 81.5 °F 63.0 °F 56% 29.79 in 10.0 mi WNW 11.5 mph - N/A   Scattered Clouds
6:54 PM 78.1 °F - 63.0 °F 60% 29.79 in 10.0 mi WNW 9.2 mph - N/A   Partly Cloudy
7:54 PM 75.9 °F - 64.0 °F 67% 29.80 in 10.0 mi West 4.6 mph - N/A   Partly Cloudy
8:54 PM 73.0 °F - 64.0 °F 73% 29.81 in 10.0 mi Calm Calm - N/A   Partly Cloudy
9:54 PM 73.0 °F - 64.9 °F 76% 29.82 in 10.0 mi Calm Calm - N/A   Partly Cloudy
10:54 PM 70.0 °F - 64.9 °F 84% 29.83 in 10.0 mi Calm Calm - N/A   Partly Cloudy
11:54 PM 69.1 °F - 64.9 °F 87% 29.83 in 10.0 mi Calm Calm - N/A   Partly Cloudy